Kezdőlap
METAR-TAF:

METAR-TAF

Repülőterek :

Frederick, Oklahoma, Amerikai Egyesült Államok

földrajzi szélesség: 34-20-40N, földrajzi hosszúság: 098-58-59W, magasság: 382 m

Jelenlegi meteorológiai megfigyelések

A jelentés 46 perccel ezelõtt készült, 15:53 UTC
Délnyugati szél 17 kt széllökések: 26 kt
Hőmérséklet 36°C
Páratartalom 35%
Légköri nyomás 1012 hPa
Látótávolság: 16.1 km
Derült ég

METAR: KFDR 161553Z AUTO 22017G26KT 10SM CLR 36/18 A2988 RMK AO2 PK WND 22026/1544 SLP093 T03610183

Idő: 11:39 (16:39 UTC)


TAF: hiányzik

Meteorológiai megfigyelések és előrejelzések több, mint 4000 repülőtéren (METAR és TAF jelentéseket).

A térképen piros és sárga pontok jelzik az elérhető meteorológiai állomásokat.

Mozgassa az egeret a pont fölött, hogy megjelenjen az állomás neve.

Azután kattintson az időjárási megfigyelések és előrejelzések megtekintéséhez.

A térkép megváltoztatása: kattintson a fekete keresztel jelölt zöld gombra ráközelítéshez, a vonallal jelölt zöld gombra távolításhoz, vagy a zöld nyilakra a szomszédos térképek eléréséhez.


METAR-TAF: